[[{"header":{"parameterUnit":"m.s-1","parameterCategory":1,"la1":30.2991,"la2":30.254,"lo1":-89.0895,"lo2":-89.0444,"dy":0.0017,"dx":0.0017,"nx":28,"ny":28,"refTime":"2024-06-02T09:00:00:Z","depth":0,"parameterNumber":2,"parameterNumberName":"U-component_of_WINDS"},"data":[0,0,0,0,0,0,0,0,0,0,0,0,0,0,0,0,0,0,0,0,0,0,0,0,0,0,0,0,0,0,0,0,0,0,0,0,0,0,0,0,0,0,0,0,0,0,0,0,0,0,0,0,0,0,0,0,0,0,-0.1843,-0.1843,0,-0.1767,-0.1766,-0.1765,-0.172,-0.172,-0.172,-0.1719,-0.1642,-0.164,-0.1638,0,0,0,0,0,0,0,0,0,0,0,0,0,-0.1953,-0.1951,-0.1843,-0.1843,-0.1842,-0.1767,-0.1766,-0.1765,-0.172,-0.172,-0.1719,-0.1719,-0.1642,-0.164,-0.1638,0,0,0,0,0,0,0,0,0,0,0,0,0,-0.1894,-0.195,-0.1844,-0.181,-0.1806,-0.1767,-0.1766,-0.1764,-0.172,-0.172,-0.1719,-0.1719,-0.1643,-0.164,-0.1638,-0.1626,0,0,-0.1629,-0.1628,0,0,0,0,0,0,0,0,-0.1897,-0.189,-0.1816,-0.1812,-0.1808,-0.1753,-0.1776,-0.1718,-0.172,-0.1753,-0.1719,-0.1719,-0.1679,-0.1673,-0.1659,-0.1622,-0.1619,-0.1629,-0.1627,-0.1626,-0.1625,0,0,0,0,0,0,0,-0.1901,-0.1893,-0.1813,-0.1815,-0.181,-0.1799,-0.1791,-0.1765,-0.1718,-0.175,-0.1746,-0.1738,-0.1677,-0.1662,-0.1657,-0.1618,-0.1629,-0.1626,-0.1624,-0.1623,-0.1568,-0.1568,0,0,0,0,0,0,-0.191,-0.1896,-0.1816,-0.1811,-0.1853,-0.1798,-0.1788,-0.1771,-0.1719,-0.171,-0.1738,-0.1736,-0.1667,-0.1661,-0.1654,-0.1637,-0.1626,-0.1623,-0.1621,-0.1567,-0.1568,-0.1568,0,0,0,0,0,0,-0.1913,-0.1904,-0.1819,-0.1853,-0.1841,-0.1796,-0.1777,-0.1769,-0.1755,-0.171,-0.1701,-0.1732,-0.1667,-0.1658,-0.1633,-0.1634,-0.1622,-0.1619,-0.1567,-0.1567,-0.1568,-0.1604,0,0,0,0,0,0,-0.1916,-0.1905,-0.1899,-0.1853,-0.1839,-0.1799,-0.1777,-0.1768,-0.175,-0.1746,-0.1702,-0.1694,-0.1666,-0.1638,-0.163,-0.163,-0.1617,-0.1567,-0.1567,-0.1568,-0.1602,-0.1605,-0.1608,0,0,0,0,0,-0.192,-0.1913,-0.1899,-0.189,-0.1832,-0.1799,-0.1791,-0.1759,-0.175,-0.1745,-0.1716,-0.1695,-0.1635,-0.1636,-0.1627,-0.1626,-0.1567,-0.1567,-0.1568,-0.1601,-0.1605,-0.1608,0,0,0,0,0,0,-0.1961,-0.1906,-0.1891,-0.1868,-0.1838,-0.1791,-0.1783,-0.1763,-0.1736,-0.1734,-0.1695,-0.1685,-0.1664,-0.1642,-0.1644,-0.1612,-0.1599,-0.1597,-0.1627,-0.163,-0.1633,-0.1639,-0.1615,0,0,0,0,0,-0.1967,-0.1945,-0.1898,-0.1882,-0.1868,-0.1829,-0.1813,-0.1791,-0.1759,-0.1746,-0.1715,-0.1685,-0.166,-0.1644,-0.1617,-0.1599,-0.1589,-0.1594,-0.1596,-0.1599,-0.1598,-0.1587,-0.1589,-0.1569,-0.1569,-0.1569,0,0,-0.198,-0.1947,-0.1935,-0.189,-0.1864,-0.1842,-0.1818,-0.1796,-0.1779,-0.1743,-0.1717,-0.1694,-0.1658,-0.1636,-0.1625,-0.1617,-0.1602,-0.16,-0.1602,-0.16,-0.1588,-0.159,-0.1592,-0.157,-0.157,-0.157,0,0,-0.1992,-0.1965,-0.1949,-0.1924,-0.1886,-0.1859,-0.1856,-0.1812,-0.1795,-0.1768,-0.174,-0.172,-0.1677,-0.1652,-0.1634,-0.1638,-0.1618,-0.1631,-0.1645,-0.1635,-0.1636,-0.1638,-0.1639,-0.164,-0.163,-0.163,-0.163,0,-0.2013,-0.1978,-0.1944,-0.1923,-0.1904,-0.1869,-0.1853,-0.1831,-0.1786,-0.1774,-0.1766,-0.1711,-0.1684,-0.1657,-0.1657,-0.1644,-0.1639,-0.1636,-0.1639,-0.164,-0.164,-0.1641,-0.1642,-0.1632,-0.1632,-0.1632,-0.1632,0,-0.2006,-0.1983,-0.1975,-0.1932,-0.1912,-0.1894,-0.1857,-0.1841,-0.182,-0.1795,-0.1769,-0.1736,-0.1703,-0.1694,-0.1674,-0.1664,-0.166,-0.1646,-0.1632,-0.1645,-0.1645,-0.1645,-0.1635,-0.1634,-0.1633,-0.1633,0,0,-0.2042,-0.198,-0.1978,-0.1959,-0.1914,-0.1895,-0.1876,-0.1843,-0.183,-0.1801,-0.1784,-0.1748,-0.1734,-0.1714,-0.1691,-0.1682,-0.1687,-0.1668,-0.1667,-0.1673,-0.1674,-0.1686,-0.1687,-0.1674,-0.1674,-0.1674,-0.1678,0,-0.2048,-0.2011,-0.1979,-0.1954,-0.1932,-0.1899,-0.1882,-0.1853,-0.1829,-0.1807,-0.1781,-0.1756,-0.174,-0.1728,-0.1717,-0.1689,-0.1687,-0.1688,-0.1658,-0.1657,-0.1668,-0.1687,-0.1699,-0.1704,-0.1678,-0.1678,-0.1678,0,-0.205,-0.2021,-0.1994,-0.1952,-0.1941,-0.1927,-0.1894,-0.1874,-0.184,-0.1824,-0.1801,-0.1777,-0.1755,-0.1744,-0.1713,-0.1715,-0.1701,-0.1685,-0.1685,-0.1681,-0.1668,-0.1684,-0.1705,-0.1706,-0.1677,-0.1677,-0.1677,0,-0.2079,-0.2034,-0.2012,-0.1996,-0.1946,-0.1937,-0.1916,-0.1882,-0.1864,-0.1836,-0.1825,-0.1795,-0.1778,-0.1756,-0.1724,-0.1719,-0.1698,-0.1683,-0.1684,-0.1684,-0.1681,-0.1682,-0.17,-0.1671,-0.1671,-0.1671,-0.1671,0,-0.2089,-0.2074,-0.2024,-0.2011,-0.1993,-0.1957,-0.194,-0.1916,-0.1886,-0.1868,-0.1838,-0.1821,-0.178,-0.1759,-0.1734,-0.1714,-0.1706,-0.1692,-0.1686,-0.1695,-0.1697,-0.1686,-0.1685,-0.1671,-0.1671,-0.1671,-0.1671,0,-0.2119,-0.2085,-0.2059,-0.2014,-0.2002,-0.1991,-0.1953,-0.1938,-0.1913,-0.189,-0.1882,-0.1842,-0.1816,-0.1782,-0.1745,-0.1728,-0.171,-0.17,-0.1721,-0.1718,-0.172,-0.1721,-0.1732,-0.1732,-0.1704,-0.1704,-0.1704,0,-0.2128,-0.2115,-0.2069,-0.2054,-0.2034,-0.2011,-0.1993,-0.1957,-0.1939,-0.1901,-0.1891,-0.1862,-0.1837,-0.1796,-0.1764,-0.1736,-0.1725,-0.1731,-0.172,-0.173,-0.1726,-0.1727,-0.1726,-0.1734,-0.1734,-0.1735,-0.1735,0,-0.2148,-0.2132,-0.2106,-0.2076,-0.2055,-0.2029,-0.2002,-0.1992,-0.195,-0.1932,-0.1905,-0.1885,-0.1847,-0.1819,-0.1786,-0.1765,-0.1743,-0.1739,-0.1737,-0.1747,-0.176,-0.1753,-0.1729,-0.1739,-0.1738,-0.1738,-0.1738,-0.1738,-0.2167,-0.2155,-0.212,-0.2093,-0.2069,-0.2045,-0.2029,-0.2001,-0.1978,-0.1944,-0.1924,-0.1897,-0.1864,-0.1818,-0.1798,-0.1777,-0.1768,-0.1766,-0.1766,-0.1766,-0.1769,-0.1763,-0.177,-0.177,-0.177,-0.177,-0.177,0,-0.2186,-0.2162,-0.2138,-0.21,-0.208,-0.2061,-0.203,-0.2014,-0.199,-0.1962,-0.1937,-0.1906,-0.1878,-0.1844,-0.1814,-0.1804,-0.1794,-0.1798,-0.1798,-0.1794,-0.1778,-0.1782,-0.1807,-0.1807,-0.1807,-0.1807,-0.1807,-0.1807,-0.2193,-0.2171,-0.2151,-0.2116,-0.2093,-0.2066,-0.205,-0.2027,-0.2004,-0.197,-0.1947,-0.1925,-0.1894,-0.1861,-0.1836,-0.1826,-0.1817,-0.1824,-0.1812,-0.1798,-0.1795,-0.1792,-0.1796,-0.1822,-0.1822,-0.1829,-0.1829,-0.1829]},{"header":{"parameterUnit":"m.s-1","parameterCategory":1,"la1":30.2991,"la2":30.254,"lo1":-89.0895,"lo2":-89.0444,"dy":0.0017,"dx":0.0017,"nx":28,"ny":28,"refTime":"2024-06-02T09:00:00:Z","depth":0,"parameterNumber":3,"parameterNumberName":"V-component_of_WINDS"},"data":[0,0,0,0,0,0,0,0,0,0,0,0,0,0,0,0,0,0,0,0,0,0,0,0,0,0,0,0,0,0,0,0,0,0,0,0,0,0,0,0,0,0,0,0,0,0,0,0,0,0,0,0,0,0,0,0,0,0,4.6866,4.6866,0,4.6843,4.6843,4.6843,4.6749,4.6747,4.6745,4.6743,4.6721,4.6722,4.6724,0,0,0,0,0,0,0,0,0,0,0,0,0,4.6827,4.6828,4.6866,4.6866,4.6865,4.6844,4.6843,4.6843,4.675,4.6747,4.6744,4.6742,4.672,4.6722,4.6724,0,0,0,0,0,0,0,0,0,0,0,0,0,4.6828,4.6829,4.6866,4.6816,4.6811,4.6844,4.6843,4.6843,4.675,4.6747,4.6744,4.6741,4.672,4.6722,4.6724,4.6803,0,0,4.6731,4.6732,0,0,0,0,0,0,0,0,4.6828,4.683,4.6824,4.682,4.6814,4.6796,4.6821,4.6829,4.6751,4.6774,4.6743,4.6739,4.6748,4.6748,4.6751,4.6802,4.6801,4.6731,4.6732,4.6733,4.6734,0,0,0,0,0,0,0,4.6828,4.683,4.6857,4.6824,4.6818,4.6795,4.6791,4.6822,4.678,4.6771,4.6765,4.6763,4.6745,4.6749,4.675,4.68,4.6731,4.6733,4.6734,4.6735,4.6912,4.6915,0,0,0,0,0,0,4.6835,4.6831,4.6858,4.6856,4.6813,4.6798,4.6794,4.6805,4.6779,4.6772,4.6766,4.6759,4.6747,4.6747,4.6749,4.6837,4.6733,4.6735,4.6736,4.6908,4.6912,4.6916,0,0,0,0,0,0,4.6835,4.6839,4.6859,4.6842,4.6842,4.6802,4.6815,4.6806,4.681,4.6775,4.6767,4.6778,4.6745,4.6746,4.6789,4.6835,4.6736,4.6738,4.6904,4.6909,4.6914,4.7016,0,0,0,0,0,0,4.6834,4.6839,4.6869,4.6843,4.6844,4.69,4.6818,4.6808,4.6814,4.6805,4.6784,4.6777,4.6742,4.6787,4.6791,4.6836,4.674,4.69,4.6906,4.6912,4.7009,4.7024,4.7038,0,0,0,0,0,4.6833,4.6899,4.6871,4.6875,4.688,4.6903,4.6903,4.6861,4.6818,4.6847,4.6824,4.6778,4.683,4.6792,4.6796,4.6843,4.6897,4.6905,4.6912,4.7002,4.7021,4.7037,0,0,0,0,0,0,4.6932,4.6895,4.6863,4.6923,4.6917,4.6887,4.6923,4.6883,4.6889,4.688,4.6828,4.6824,4.6875,4.6863,4.6822,4.6916,4.6855,4.6864,4.6922,4.694,4.6954,4.6956,4.6741,0,0,0,0,0,4.6961,4.6983,4.6949,4.7005,4.7003,4.6964,4.6972,4.694,4.6932,4.6929,4.6909,4.6903,4.6917,4.6928,4.694,4.7006,4.7,4.7041,4.7055,4.7067,4.7075,4.7108,4.7125,4.6941,4.6941,4.6941,0,0,4.7021,4.7003,4.702,4.7024,4.7016,4.7039,4.6962,4.6991,4.7007,4.6933,4.6973,4.6958,4.6947,4.7003,4.7026,4.6994,4.7125,4.7077,4.7087,4.7088,4.7118,4.7135,4.7151,4.6946,4.6945,4.6944,0,0,4.7142,4.7131,4.7175,4.7168,4.7155,4.7128,4.7139,4.7115,4.7102,4.7141,4.7085,4.7104,4.7131,4.7125,4.7125,4.7241,4.7198,4.7247,4.7322,4.7355,4.7369,4.7382,4.7422,4.7437,4.7255,4.7255,4.7255,0,4.7218,4.725,4.7203,4.7234,4.7237,4.717,4.7214,4.721,4.7202,4.7205,4.717,4.72,4.7189,4.7241,4.7269,4.7272,4.7282,4.7249,4.7371,4.7383,4.7394,4.7432,4.7447,4.7261,4.7261,4.726,4.7259,0,4.7343,4.7367,4.7404,4.7397,4.7404,4.7442,4.74,4.7413,4.738,4.7356,4.7396,4.7379,4.7385,4.7395,4.7364,4.7442,4.7423,4.738,4.7318,4.7418,4.7453,4.7467,4.727,4.7267,4.7266,4.7264,0,0,4.7527,4.7492,4.7506,4.7501,4.7482,4.7499,4.7533,4.7538,4.7549,4.7546,4.7572,4.7596,4.7555,4.7556,4.7523,4.7552,4.7643,4.7505,4.7504,4.753,4.7727,4.7758,4.7776,4.7615,4.7617,4.7619,4.7727,0,4.7641,4.7696,4.7654,4.7717,4.7737,4.7673,4.7702,4.7693,4.7672,4.7686,4.7662,4.7679,4.7625,4.7625,4.765,4.7627,4.7682,4.7618,4.7638,4.7639,4.7642,4.7794,4.7828,4.7931,4.7741,4.7743,4.7745,0,4.7781,4.7782,4.7847,4.7821,4.7828,4.7855,4.7856,4.787,4.7858,4.784,4.784,4.7799,4.783,4.7769,4.781,4.7768,4.7773,4.7763,4.7765,4.7765,4.7698,4.7797,4.7963,4.7978,4.7766,4.7764,4.7762,0,4.7907,4.7925,4.7965,4.7963,4.7935,4.7955,4.7944,4.7928,4.7934,4.7934,4.7937,4.7941,4.7944,4.7948,4.7909,4.7868,4.7954,4.789,4.794,4.7941,4.7961,4.796,4.8129,4.7966,4.7966,4.7966,4.7965,0,4.8038,4.8079,4.8021,4.8046,4.809,4.8041,4.8086,4.8069,4.8055,4.8075,4.8021,4.8041,4.7988,4.8002,4.7972,4.801,4.8012,4.7998,4.7989,4.8002,4.8004,4.8005,4.7996,4.797,4.7969,4.7968,4.7967,0,4.8185,4.8148,4.8187,4.8156,4.8149,4.8184,4.8157,4.8178,4.8153,4.8178,4.8182,4.8142,4.8155,4.8117,4.8125,4.8104,4.8159,4.8139,4.8163,4.8157,4.8208,4.8203,4.8383,4.8403,4.8229,4.823,4.8232,0,4.8271,4.8301,4.8273,4.8282,4.8273,4.8289,4.8293,4.8246,4.8253,4.824,4.8263,4.8272,4.8277,4.8302,4.8273,4.8279,4.8258,4.8321,4.8259,4.827,4.8258,4.8256,4.8258,4.8333,4.8336,4.8337,4.8339,0,4.8427,4.8406,4.8414,4.8416,4.8422,4.8421,4.8417,4.8427,4.8376,4.8387,4.8399,4.8403,4.841,4.842,4.8419,4.8407,4.8365,4.8358,4.837,4.8383,4.8395,4.8388,4.8197,4.8354,4.8353,4.8352,4.8351,4.835,4.8545,4.8568,4.8551,4.8561,4.8553,4.8549,4.8567,4.8543,4.8553,4.8554,4.8526,4.8544,4.853,4.8524,4.8517,4.853,4.8501,4.8519,4.8523,4.8527,4.8535,4.8394,4.853,4.8529,4.8529,4.8529,4.8528,0,4.8696,4.8682,4.8692,4.8686,4.8694,4.8652,4.8645,4.8654,4.8671,4.8661,4.8666,4.868,4.8688,4.866,4.8664,4.8681,4.8661,4.8683,4.8681,4.8679,4.8562,4.8551,4.8699,4.8699,4.8699,4.8699,4.8699,4.8699,4.8776,4.8812,4.879,4.8821,4.8805,4.8822,4.8821,4.8817,4.8809,4.8827,4.8833,4.8814,4.8797,4.8799,4.8804,4.8796,4.8799,4.8828,4.8813,4.8704,4.8687,4.8671,4.8661,4.883,4.883,4.8929,4.893,4.8931]}]]